ROMMA est une association bénévole à but non lucratif. Votre soutien est indispensable : ADHERER à ROMMA ou FAIRE un DON

Lélex - (01, Ain)

Jura Gessien (910 m)   Longitude: 5° 56' E   Latitude: 46° 18' N Station partenaire n°103
 

Détail journalier du     <<     >>

Température Precipitation Humidité Vent Dir Rafale Dir. rafale Ensol.
Heure (°C) (mm) (%) (km/h) (km/h) (min)
01:00 9.105510SSO29SO0
02:00 10.204715SO44SO0
03:00 9.904817SO44SO0
04:00 10.204710SSO29SO0
05:00 11.004512SO39S0
06:00 11.804517SSO45OSO0
07:00 12.104415SO34SSO5
08:00 11.80487SSO37SSO55
09:00 11.80489SSO34SSO0
10:00 13.80467S19SO60
11:00 15.104011SO31SO60
12:00 16.204015OSO39SO60
13:00 16.804115SO45OSO60
14:00 15.704515SO39OSO10
15:00 15.604510SSO42OSO0
16:00 15.604712SO32SO0
17:00 12.20679S32SSE0
18:00 8.70856NNE19NO0
19:00 6.80895NNE21NNO0
20:00 5.90.2893NNE15NNE0
21:00 5.10914NE16N0
22:00 5.11.2882E10NNO0
23:00 3.13.2913E16SO0
minuit 1.82.6911SE5N0

Graphique du 25-04-2019

 

Serveur OMMA